Skip Page Navigation
NASA JPL Caltech
NASA Logo - Jet Propulsion Laboratory + View the NASA Portal
+ Center for Near-Earth Object Studies
JPL Home Earth Solar System Stars & Galaxies Technology
JPL Solar System Dynamics
BODIES ORBITS EPHEMERIDES TOOLS PHYSICAL DATA DISCOVERY FAQ SITE MAP
IMPORTANT: The SSD Announcement email list is now available. Major changes are coming in the near future, including possible hostname and/or URL changes. To be notified of such changes, subscribe to this email list.

Please visit this page for more details.


JPL Small-Body Database Browser
Search: [ help ]  
392007 (2008 YO153)
Classification: Main-belt Asteroid          SPK-ID: 2392007
Ephemeris | Orbit Diagram | Orbital Elements | Mission Design | Physical Parameters | Discovery Circumstances ]

[ show orbit diagram ]
Orbital Elements at Epoch 2458600.5 (2019-Apr-27.0) TDB
Reference: JPL 12 (heliocentric ecliptic J2000)
 Element Value Uncertainty (1-sigma)   Units 
e .06417336696992268 8.9468e-08  
a 2.795721652435496 6.5881e-08 au
q 2.616310780887994 2.8273e-07 au
i 6.477446450532015 7.7642e-06 deg
node 130.7072404940033 8.1123e-05 deg
peri 225.4397916873733 0.00010542 deg
M 183.5326923982864 7.3427e-05 deg
tp 2459437.453019919793
(2021-Aug-10.95301992)
0.00036115 TDB
period 1707.415901936726
4.67
6.0353e-05
1.652e-07
d
yr
n .210844938009334 7.4528e-09 deg/d
Q 2.975132523982997 7.0109e-08 au
  Orbit Determination Parameters
   # obs. used (total)      84  
   data-arc span      4189 days (11.47 yr)  
   first obs. used      2007-09-10  
   last obs. used      2019-02-28  
   planetary ephem.      DE431  
   SB-pert. ephem.      SB431-N16  
   condition code      0  
   norm. resid. RMS      .58039  
   source      ORB  
   producer      Otto Matic  
   solution date      2019-Jul-14 11:51:07  

Additional Information
 Earth MOID = 1.61448 au 
 Jupiter MOID = 2.34317 au 
 T_jup = 3.315 
[ show covariance matrix ]

Ephemeris | Orbit Diagram | Orbital Elements | Mission Design | Physical Parameters | Discovery Circumstances ]

Physical Parameter Table
Parameter Symbol Value Units Sigma Reference Notes
absolute magnitude H 16.7   n/a MPO434450  

392007 (2008 YO153)          Discovered 2008-Dec-21 by Spacewatch at Kitt Peak
Reference: Last Updated: 2014-04-17
Ephemeris | Orbit Diagram | Orbital Elements | Mission Design | Physical Parameters | Discovery Circumstances ]
ABOUT SSD CREDITS/AWARDS PRIVACY/COPYRIGHT GLOSSARY LINKS
FirstGov
(server date/time)  
NASA Home Page
Site Manager:   Ryan S. Park
Webmaster  Alan B. Chamberlin